EW3511 Weather Reports


Display with metric or nautical units.
time (UTC)temp
F
wind
direction
speed
MPH
gust
MPH
rain 1hr
in
rain 24hr
in
rain mn
in
humidity
%
barometer
mb
20260831222556 65 168 1.0 10.0 0.00 0.05 0.00 69 1021.2
20260831221617 66 230 2.0 6.0 0.00 0.05 0.00 69 1021.1
20260831220617 66 202 1.0 2.0 0.00 0.05 0.00 70 1020.9
20260831215557 66 182 1.0 6.0 0.00 0.05 0.05 71 1020.9
20260831214559 66 167 1.0 3.0 0.00 0.05 0.05 71 1020.7
20260831213558 66 139 1.0 2.0 0.00 0.05 0.05 71 1020.6
20260831212558 66 121 0.0 3.0 0.00 0.05 0.05 72 1020.4
20260831211559 67 76 0.0 2.0 0.00 0.05 0.05 72 1020.2
20260831210559 67 180 1.0 6.0 0.00 0.05 0.05 71 1020.1
20260831205600 67 71 1.0 5.0 0.00 0.05 0.05 71 1019.9
20260831204601 67 194 1.0 5.0 0.00 0.05 0.05 71 1019.8
20260831203601 67 140 2.0 6.0 0.00 0.05 0.05 71 1019.7
20260831202602 67 153 2.0 7.0 0.00 0.05 0.05 71 1019.5
20260831201601 66 159 1.0 5.0 0.00 0.05 0.05 73 1019.4
20260831200533 66 207 1.0 3.0 0.00 0.05 0.05 73 1019.2
20260831195534 66 178 1.0 3.0 0.00 0.05 0.05 74 1019.2
20260831194535 65 107 1.0 3.0 0.00 0.05 0.05 74 1019.1
20260831193535 65 143 0.0 2.0 0.00 0.05 0.05 74 1019.2
20260831192536 66 202 0.0 2.0 0.00 0.05 0.05 73 1019.1
20260831191537 66 116 0.0 1.0 0.00 0.05 0.05 73 1019.0
20260831190538 66 92 0.0 2.0 0.00 0.05 0.05 72 1019.0
20260831185537 67 129 1.0 2.0 0.00 0.05 0.05 71 1018.9
20260831184537 67 158 1.0 5.0 0.00 0.05 0.05 69 1018.7
20260831183618 68 133 1.0 5.0 0.00 0.05 0.05 68 1018.4
20260831182558 68 143 2.0 3.0 0.00 0.05 0.05 66 1018.3
20260831181538 69 201 2.0 9.0 0.00 0.05 0.05 64 1017.9
20260831180559 69 210 2.0 5.0 0.00 0.05 0.05 62 1017.7
20260831175559 70 156 2.0 7.0 0.00 0.05 0.05 61 1017.4
20260831174539 70 182 2.0 7.0 0.00 0.05 0.05 60 1017.5
20260831173620 70 188 3.0 7.0 0.00 0.05 0.05 60 1017.4
20260831172541 70 194 3.0 7.0 0.00 0.05 0.05 60 1017.3
20260831171540 71 181 2.0 7.0 0.00 0.05 0.05 60 1017.2
20260831170541 71 196 2.0 7.0 0.00 0.05 0.05 59 1017.1
20260831165541 71 194 2.0 8.0 0.00 0.05 0.05 58 1017.1
20260831164543 72 194 2.0 6.0 0.00 0.05 0.05 57 1017.1
20260831163543 72 61 2.0 5.0 0.00 0.05 0.05 55 1017.1
20260831162543 73 205 2.0 6.0 0.00 0.05 0.05 55 1017.1
20260831161545 74 286 2.0 8.0 0.00 0.05 0.05 54 1017.0
20260831160544 73 275 2.0 7.0 0.00 0.05 0.05 54 1016.7
20260831155544 73 218 3.0 8.0 0.00 0.05 0.05 54 1016.7
20260831154544 74 230 3.0 9.0 0.00 0.05 0.05 53 1016.7
20260831153545 74 217 3.0 9.0 0.00 0.05 0.05 51 1016.8
20260831152545 76 202 3.0 9.0 0.00 0.05 0.05 49 1016.9
20260831151545 76 74 2.0 7.0 0.00 0.05 0.05 49 1016.8
20260831150546 75 254 3.0 13.0 0.00 0.05 0.05 51 1017.0
20260831145547 74 189 3.0 6.0 0.00 0.05 0.05 53 1017.1
20260831144629 75 69 2.0 7.0 0.00 0.05 0.05 55 1017.1
20260831143547 75 148 2.0 6.0 0.00 0.05 0.05 56 1017.0
20260831142628 75 217 3.0 10.0 0.00 0.05 0.05 54 1017.0
20260831141548 76 12 2.0 8.0 0.00 0.05 0.05 55 1016.9
20260831140549 76 278 2.0 8.0 0.00 0.05 0.05 55 1017.0
20260831135609 77 120 2.0 7.0 0.00 0.05 0.05 55 1017.0
20260831134550 78 348 2.0 5.0 0.00 0.05 0.05 54 1017.0
20260831133550 77 217 3.0 9.0 0.00 0.05 0.05 54 1017.0
20260831132551 79 338 4.0 10.0 0.00 0.05 0.05 53 1016.9
20260831131551 79 326 3.0 8.0 0.00 0.05 0.05 55 1016.9
20260831130551 78 188 3.0 8.0 0.00 0.05 0.05 55 1016.9
20260831125611 79 16 2.0 7.0 0.00 0.05 0.05 55 1017.0
20260831124552 78 12 3.0 9.0 0.00 0.05 0.05 58 1017.0
20260831123612 78 173 3.0 8.0 0.00 0.05 0.05 58 1016.9
20260831122609 77 253 2.0 7.0 0.00 0.05 0.05 60 1017.0
20260831121553 78 171 2.0 8.0 0.00 0.05 0.05 60 1017.1
20260831120554 79 58 2.0 6.0 0.00 0.05 0.05 58 1017.1
20260831115555 79 210 3.0 9.0 0.00 0.05 0.05 59 1017.2
20260831114555 78 41 2.0 7.0 0.00 0.05 0.05 60 1017.3
20260831113554 78 264 2.0 7.0 0.00 0.05 0.05 61 1017.3
20260831112615 77 243 3.0 8.0 0.00 0.05 0.05 61 1017.4
20260831111555 77 228 2.0 7.0 0.00 0.05 0.05 61 1017.5
20260831110556 77 181 3.0 6.0 0.00 0.05 0.05 61 1017.4
20260831105556 77 255 2.0 5.0 0.00 0.05 0.05 61 1017.5
20260831104637 78 186 3.0 8.0 0.00 0.05 0.05 60 1017.4
20260831103557 77 57 1.0 5.0 0.00 0.05 0.05 61 1017.5
20260831102618 76 316 2.0 7.0 0.00 0.05 0.05 62 1017.5
20260831101558 75 341 2.0 5.0 0.00 0.05 0.05 64 1017.6
20260831100558 76 25 2.0 6.0 0.00 0.05 0.05 63 1017.7
20260831095619 75 110 2.0 6.0 0.00 0.05 0.05 64 1017.7
20260831094600 74 332 2.0 7.0 0.00 0.05 0.05 66 1017.8
20260831093559 73 309 2.0 7.0 0.00 0.05 0.05 68 1017.8
20260831092600 73 88 1.0 5.0 0.00 0.05 0.05 68 1017.9
20260831091600 73 101 1.0 3.0 0.00 0.05 0.05 68 1017.9
20260831090601 74 156 2.0 5.0 0.00 0.05 0.05 67 1017.9
20260831085602 73 97 0.0 3.0 0.00 0.05 0.05 69 1017.9
20260831084604 72 301 1.0 3.0 0.00 0.05 0.05 71 1017.9
20260831083622 72 182 2.0 6.0 0.00 0.05 0.05 70 1017.8
20260831082602 72 33 1.0 5.0 0.00 0.05 0.05 71 1017.8
20260831081603 72 47 1.0 5.0 0.00 0.05 0.05 72 1017.8
20260831080604 71 88 1.0 3.0 0.00 0.05 0.05 74 1017.7
20260831075604 70 165 1.0 3.0 0.00 0.05 0.05 80 1017.5
20260831074607 70 162 1.0 5.0 0.00 0.05 0.05 79 1017.4
20260831073604 70 105 1.0 3.0 0.00 0.05 0.05 80 1017.4
20260831072605 66 141 1.0 3.0 0.00 0.05 0.05 86 1017.3
20260831071533 66 80 0.0 2.0 0.00 0.05 0.05 88 1017.3
20260831070534 66 117 0.0 3.0 0.00 0.06 0.05 88 1017.3
20260831065534 66 108 1.0 3.0 0.00 0.06 0.05 87 1017.1
20260831064535 66 120 1.0 3.0 0.00 0.06 0.05 88 1017.1
20260831063535 65 93 1.0 2.0 0.00 0.06 0.05 89 1017.0
20260831062536 64 116 1.0 2.0 0.00 0.06 0.05 91 1016.9
20260831061556 63 98 0.0 2.0 0.00 0.06 0.05 92 1016.9
20260831060553 62 102 0.0 1.0 0.00 0.06 0.05 94 1016.9
20260831055537 62 136 0.0 2.0 0.00 0.06 0.05 94 1016.8
20260831053538 61 116 1.0 2.0 0.00 0.06 0.05 98 1016.6
20260831052538 61 0.0 1.0 0.00 0.06 0.05 99 1016.6
20260831051539 61 0.0 0.0 0.00 0.06 0.05 99 1016.5
20260831050600 61 111 0.0 1.0 0.00 0.06 0.05 98 1016.5
20260831045540 61 81 0.0 1.0 0.00 0.06 0.05 98 1016.6
20260831044540 61 0.0 0.0 0.00 0.06 0.05 97 1016.4
20260831043540 62 80 0.0 1.0 0.00 0.06 0.05 96 1016.4
20260831042541 62 59 0.0 2.0 0.02 0.06 0.05 94 1016.5
20260831041541 62 193 2.0 6.0 0.05 0.06 0.05 94 1016.4
20260831040542 62 196 3.0 8.0 0.05 0.06 0.05 96 1016.6
20260831035602 62 204 3.0 8.0 0.05 0.06 0.05 96 1016.3
20260831034542 62 169 2.0 6.0 0.05 0.06 0.05 95 1016.5
20260831033603 63 338 2.0 7.0 0.05 0.06 0.05 95 1016.7
20260831032603 64 21 3.0 9.0 0.03 0.04 0.03 94 1016.7
20260831031544 63 337 1.0 5.0 0.00 0.01 0.00 97 1014.9
20260831030544 63 148 1.0 2.0 0.00 0.01 0.00 96 1014.7
20260831025544 63 0.0 0.0 0.00 0.01 0.00 95 1014.3
20260831024545 64 0.0 1.0 0.00 0.01 0.00 94 1014.4
20260831023546 64 0.0 0.0 0.00 0.01 0.00 94 1014.3
20260831022546 64 0.0 0.0 0.00 0.01 0.00 94 1014.2
20260831021546 64 0.0 0.0 0.00 0.01 0.00 93 1014.2
20260831020547 64 0.0 0.0 0.00 0.01 0.00 93 1014.2
20260831015547 63 0.0 0.0 0.00 0.01 0.00 94 1014.3
20260831014547 64 68 0.0 1.0 0.00 0.01 0.00 95 1014.2
20260831013548 64 92 0.0 1.0 0.00 0.01 0.00 94 1014.4
20260831012609 64 0.0 0.0 0.00 0.01 0.00 94 1014.5
20260831011549 64 87 0.0 1.0 0.00 0.01 0.00 94 1014.7
20260831010549 64 99 1.0 2.0 0.00 0.01 0.00 93 1014.6
20260831005549 65 94 1.0 2.0 0.00 0.01 0.00 93 1014.6
20260831004550 65 94 1.0 2.0 0.00 0.01 0.00 93 1014.8
20260831003610 65 82 0.0 1.0 0.00 0.01 0.00 93 1014.8
20260831002551 65 90 1.0 2.0 0.00 0.01 0.00 92 1014.9
20260831001551 65 94 1.0 2.0 0.00 0.01 0.00 92 1015.1
20260831000604 66 91 1.0 2.0 0.00 0.01 0.00 92 1015.1
20260830235552 66 109 1.0 2.0 0.00 0.01 0.00 91 1015.2
20260830234552 66 113 1.0 5.0 0.00 0.01 0.00 90 1015.4
20260830233553 66 113 2.0 6.0 0.00 0.01 0.00 90 1015.5
20260830232553 67 122 3.0 7.0 0.00 0.01 0.00 90 1015.6
20260830231554 67 115 2.0 6.0 0.00 0.01 0.00 89 1015.5
20260830230554 67 91 1.0 2.0 0.00 0.01 0.00 89 1015.4
20260830225554 66 96 1.0 3.0 0.00 0.01 0.00 89 1015.8
20260830224555 66 0.0 0.0 0.00 0.01 0.00 90 1015.8
20260830223555 67 110 0.0 1.0 0.00 0.01 0.00 89 1016.0